"Sample Date","Sample Time","Sample Value","Units","Flow Rate","Sample Interval","Number Channels","Micron Size 0","Counts/Channel 0","Micron Size 1","Counts/Channel 1","Micron Size 2","Counts/Channel 2","Micron Size 3","Counts/Channel 3","Micron Size 4","Counts/Channel 4","Micron Size 5","Counts/Channel 5","Micron Size 6","Counts/Channel 6","Micron Size 7","Counts/Channel 7","Micron Size 8","Counts/Channel 8","Micron Size 9","Counts/Channel 9","Micron Size 10","Counts/Channel 10","Micron Size 11","Counts/Channel 11","Micron Size 12","Counts/Channel 12","Micron Size 13","Counts/Channel 13","Micron Size 14","Counts/Channel 14","Micron Size 15","Counts/Channel 15","Micron Size 16","Counts/Channel 16","Micron Size 17","Counts/Channel 17","Micron Size 18","Counts/Channel 18","Micron Size 19","Counts/Channel 19","Micron Size 20","Counts/Channel 20","Micron Size 21","Counts/Channel 21","Micron Size 22","Counts/Channel 22","Micron Size 23","Counts/Channel 23","Micron Size 24","Counts/Channel 24","Micron Size 25","Counts/Channel 25","Micron Size 26","Counts/Channel 26","Micron Size 27","Counts/Channel 27","Micron Size 28","Counts/Channel 28","Micron Size 29","Counts/Channel 29","Micron Size 30","Counts/Channel 30","Micron Size 31","Counts/Channel 31"
"03/09/08","04:00:03",115672.000,"cc",28263.471,6.00,6,0.100,104704.000,0.200,9463.000,0.300,1077.000,0.500,378.000,1.000,50.000,5.000,0
"03/09/08","04:00:09",129448.000,"cc",28336.670,6.00,6,0.100,117419.000,0.200,10605.000,0.300,1014.000,0.500,367.000,1.000,43.000,5.000,0
"03/09/08","04:00:15",124259.000,"cc",28325.525,6.00,6,0.100,112015.000,0.200,10270.000,0.300,1371.000,0.500,532.000,1.000,71.000,5.000,0
"03/09/08","04:00:21",162226.000,"cc",28271.717,6.00,6,0.100,146984.000,0.200,13621.000,0.300,1226.000,0.500,351.000,1.000,44.000,5.000,0
"03/09/08","04:00:27",204737.000,"cc",28343.861,6.00,6,0.100,184358.000,0.200,18636.000,0.300,1332.000,0.500,368.000,1.000,43.000,5.000,0
"03/09/08","04:00:33",136366.000,"cc",28354.520,6.00,6,0.100,123440.000,0.200,11480.000,0.300,1102.000,0.500,317.000,1.000,27.000,5.000,0
"03/09/08","04:00:39",133686.000,"cc",28369.541,6.00,6,0.100,119938.000,0.200,11513.000,0.300,1449.000,0.500,671.000,1.000,115.000,5.000,0
"03/09/08","04:00:45",121746.000,"cc",28280.240,6.00,6,0.100,109330.000,0.200,10478.000,0.300,1330.000,0.500,536.000,1.000,72.000,5.000,0
"03/09/08","04:00:51",147885.000,"cc",28252.361,6.00,6,0.100,131876.000,0.200,13350.000,0.300,1768.000,0.500,784.000,1.000,107.000,5.000,0
"03/09/08","04:00:57",137098.000,"cc",28293.940,6.00,6,0.100,122887.000,0.200,12073.000,0.300,1436.000,0.500,613.000,1.000,89.000,5.000,0
"03/09/08","04:01:03",100429.000,"cc",28303.715,6.00,6,0.100,90268.000,0.200,8512.000,0.300,1120.000,0.500,454.000,1.000,75.000,5.000,0
"03/09/08","04:01:09",125695.000,"cc",28347.930,6.00,6,0.100,113364.000,0.200,10747.000,0.300,1162.000,0.500,377.000,1.000,45.000,5.000,0
"03/09/08","04:01:15",159218.000,"cc",28288.504,6.00,6,0.100,143441.000,0.200,14002.000,0.300,1300.000,0.500,422.000,1.000,53.000,5.000,0
"03/09/08","04:01:21",175700.000,"cc",28337.725,6.00,6,0.100,157975.000,0.200,15880.000,0.300,1340.000,0.500,439.000,1.000,66.000,5.000,0
"03/09/08","04:01:27",201886.000,"cc",28346.940,6.00,6,0.100,181504.000,0.200,18522.000,0.300,1381.000,0.500,425.000,1.000,54.000,5.000,0
"03/09/08","04:01:33",219215.000,"cc",28279.854,6.00,6,0.100,197264.000,0.200,20093.000,0.300,1433.000,0.500,373.000,1.000,52.000,5.000,0
"03/09/08","04:01:39",226120.000,"cc",28301.469,6.00,6,0.100,202959.000,0.200,21180.000,0.300,1485.000,0.500,422.000,1.000,74.000,5.000,0
"03/09/08","04:01:45",170603.000,"cc",28340.240,6.00,6,0.100,153938.000,0.200,14875.000,0.300,1310.000,0.500,432.000,1.000,48.000,5.000,0
"03/09/08","04:01:51",160996.000,"cc",28270.826,6.00,6,0.100,144278.000,0.200,14497.000,0.300,1569.000,0.500,580.000,1.000,72.000,5.000,0
"03/09/08","04:01:57",163687.000,"cc",28303.940,6.00,6,0.100,146164.000,0.200,14915.000,0.300,1792.000,0.500,720.000,1.000,96.000,5.000,0
"03/09/08","04:02:03",169959.000,"cc",28330.209,6.00,6,0.100,151978.000,0.200,15702.000,0.300,1575.000,0.500,602.000,1.000,102.000,5.000,0
"03/09/08","04:02:09",200907.000,"cc",28292.533,6.00,6,0.100,180003.000,0.200,18592.000,0.300,1674.000,0.500,560.000,1.000,78.000,5.000,0
"03/09/08","04:02:15",237498.000,"cc",28311.982,6.00,6,0.100,211200.000,0.200,22843.000,0.300,2420.000,0.500,911.000,1.000,124.000,5.000,0
"03/09/08","04:02:21",246015.000,"cc",28305.611,6.00,6,0.100,218632.000,0.200,24178.000,0.300,2225.000,0.500,870.000,1.000,110.000,5.000,0
"03/09/08","04:02:27",268625.000,"cc",28325.479,6.00,6,0.100,237951.000,0.200,27640.000,0.300,2184.000,0.500,738.000,1.000,112.000,5.000,0
"03/09/08","04:02:33",189762.000,"cc",28346.492,6.00,6,0.100,157124.000,0.200,30033.000,0.300,2081.000,0.500,470.000,1.000,54.000,5.000,0
"03/09/08","04:02:39",238814.000,"cc",28351.742,6.00,6,0.100,213439.000,0.200,23245.000,0.300,1631.000,0.500,445.000,1.000,54.000,5.000,0
"03/09/08","04:02:45",296805.000,"cc",28334.654,6.00,6,0.100,263394.000,0.200,30972.000,0.300,1907.000,0.500,471.000,1.000,61.000,5.000,0
"03/09/08","04:02:51",205320.000,"cc",28248.240,6.00,6,0.100,183456.000,0.200,19475.000,0.300,1729.000,0.500,577.000,1.000,83.000,5.000,0
"03/09/08","04:02:57",234890.000,"cc",28350.592,6.00,6,0.100,210323.000,0.200,22740.000,0.300,1465.000,0.500,319.000,1.000,43.000,5.000,0
"03/09/08","04:03:03",223892.000,"cc",28296.879,6.00,6,0.100,199230.000,0.200,22598.000,0.300,1660.000,0.500,347.000,1.000,57.000,5.000,0
"03/09/08","04:03:09",212635.000,"cc",28329.229,6.00,6,0.100,190185.000,0.200,20260.000,0.300,1646.000,0.500,473.000,1.000,71.000,5.000,0
"03/09/08","04:03:15",194666.000,"cc",28353.637,6.00,6,0.100,174744.000,0.200,18321.000,0.300,1253.000,0.500,312.000,1.000,36.000,5.000,0
"03/09/08","04:03:21",132058.000,"cc",28312.293,6.00,6,0.100,119346.000,0.200,11284.000,0.300,1059.000,0.500,333.000,1.000,36.000,5.000,0
"03/09/08","04:03:27",104337.000,"cc",28268.357,6.00,6,0.100,93792.000,0.200,8586.000,0.300,1323.000,0.500,555.000,1.000,81.000,5.000,0
"03/09/08","04:03:33",107417.000,"cc",28313.641,6.00,6,0.100,96666.000,0.200,8951.000,0.300,1206.000,0.500,519.000,1.000,75.000,5.000,0
"03/09/08","04:03:39",141267.000,"cc",28319.988,6.00,6,0.100,127034.000,0.200,12307.000,0.300,1338.000,0.500,528.000,1.000,60.000,5.000,0
"03/09/08","04:03:45",172053.000,"cc",28398.295,6.00,6,0.100,155335.000,0.200,14896.000,0.300,1285.000,0.500,473.000,1.000,64.000,5.000,0
"03/09/08","04:03:51",138768.000,"cc",28327.201,6.00,6,0.100,123913.000,0.200,12244.000,0.300,1741.000,0.500,775.000,1.000,95.000,5.000,0
"03/09/08","04:03:57",148888.000,"cc",28302.211,6.00,6,0.100,133787.000,0.200,13107.000,0.300,1373.000,0.500,540.000,1.000,81.000,5.000,0
"03/09/08","04:04:03",86872.000,"cc",28317.748,6.00,6,0.100,77942.000,0.200,7197.000,0.300,1174.000,0.500,487.000,1.000,72.000,5.000,0
"03/09/08","04:04:09",123123.000,"cc",28249.584,6.00,6,0.100,110443.000,0.200,10609.000,0.300,1409.000,0.500,586.000,1.000,76.000,5.000,0
"03/09/08","04:04:15",116709.000,"cc",28343.697,6.00,6,0.100,103756.000,0.200,10280.000,0.300,1767.000,0.500,799.000,1.000,107.000,5.000,0
"03/09/08","04:04:21",138479.000,"cc",28368.027,6.00,6,0.100,123706.000,0.200,12231.000,0.300,1663.000,0.500,768.000,1.000,111.000,5.000,0
"03/09/08","04:04:27",193526.000,"cc",28292.594,6.00,6,0.100,173657.000,0.200,17684.000,0.300,1611.000,0.500,508.000,1.000,66.000,5.000,0
"03/09/08","04:04:33",246536.000,"cc",28282.652,6.00,6,0.100,219839.000,0.200,24248.000,0.300,1868.000,0.500,524.000,1.000,57.000,5.000,0
"03/09/08","04:04:39",203222.000,"cc",28376.070,6.00,6,0.100,181711.000,0.200,18818.000,0.300,1825.000,0.500,754.000,1.000,114.000,5.000,0
"03/09/08","04:04:45",293708.000,"cc",28300.906,6.00,6,0.100,248573.000,0.200,41405.000,0.300,2797.000,0.500,809.000,1.000,124.000,5.000,0
"03/09/08","04:04:51",259231.000,"cc",28297.686,6.00,6,0.100,191967.000,0.200,62374.000,0.300,3783.000,0.500,960.000,1.000,147.000,5.000,0
"03/09/08","04:04:57",326181.000,"cc",28271.041,6.00,6,0.100,287809.000,0.200,35139.000,0.300,2403.000,0.500,718.000,1.000,112.000,5.000,0
"03/09/08","04:05:03",212728.000,"cc",28319.705,6.00,6,0.100,178969.000,0.200,30995.000,0.300,2136.000,0.500,560.000,1.000,68.000,5.000,0
"03/09/08","04:05:09",297383.000,"cc",28404.734,6.00,6,0.100,237117.000,0.200,56568.000,0.300,3083.000,0.500,567.000,1.000,48.000,5.000,0
"03/09/08","04:05:15",252430.000,"cc",28288.912,6.00,6,0.100,225852.000,0.200,24166.000,0.300,1844.000,0.500,503.000,1.000,65.000,5.000,0
"03/09/08","04:05:21",221565.000,"cc",28344.734,6.00,6,0.100,198783.000,0.200,20627.000,0.300,1626.000,0.500,457.000,1.000,72.000,5.000,0
"03/09/08","04:05:27",191685.000,"cc",28329.451,6.00,6,0.100,172433.000,0.200,17273.000,0.300,1451.000,0.500,479.000,1.000,49.000,5.000,0
"03/09/08","04:05:33",181913.000,"cc",28328.621,6.00,6,0.100,163416.000,0.200,16288.000,0.300,1532.000,0.500,575.000,1.000,102.000,5.000,0
"03/09/08","04:05:39",168954.000,"cc",28298.775,6.00,6,0.100,152338.000,0.200,14659.000,0.300,1407.000,0.500,488.000,1.000,62.000,5.000,0
"03/09/08","04:05:45",173466.000,"cc",28283.162,6.00,6,0.100,156498.000,0.200,15114.000,0.300,1318.000,0.500,485.000,1.000,51.000,5.000,0
"03/09/08","04:05:51",151418.000,"cc",28325.926,6.00,6,0.100,136406.000,0.200,13214.000,0.300,1258.000,0.500,471.000,1.000,69.000,5.000,0
"03/09/08","04:05:57",349519.000,"cc",28291.248,6.00,6,0.100,306551.000,0.200,40082.000,0.300,2329.000,0.500,488.000,1.000,69.000,5.000,0
"03/09/08","04:06:03",332293.000,"cc",28360.436,6.00,6,0.100,293354.000,0.200,36138.000,0.300,2279.000,0.500,465.000,1.000,57.000,5.000,0
"03/09/08","04:06:09",245320.000,"cc",28292.816,6.00,6,0.100,218428.000,0.200,24220.000,0.300,1957.000,0.500,623.000,1.000,92.000,5.000,0
"03/09/08","04:06:15",166200.000,"cc",28305.766,6.00,6,0.100,149691.000,0.200,14728.000,0.300,1283.000,0.500,442.000,1.000,56.000,5.000,0
"03/09/08","04:06:21",166270.000,"cc",28254.898,6.00,6,0.100,149305.000,0.200,14646.000,0.300,1573.000,0.500,646.000,1.000,100.000,5.000,0
"03/09/08","04:06:27",137102.000,"cc",28319.549,6.00,6,0.100,123636.000,0.200,11659.000,0.300,1186.000,0.500,515.000,1.000,106.000,5.000,0
"03/09/08","04:06:33",170630.000,"cc",28347.557,6.00,6,0.100,153412.000,0.200,15254.000,0.300,1408.000,0.500,469.000,1.000,87.000,5.000,0
"03/09/08","04:06:39",112792.000,"cc",28294.121,6.00,6,0.100,101144.000,0.200,9762.000,0.300,1255.000,0.500,551.000,1.000,80.000,5.000,0
"03/09/08","04:06:45",193867.000,"cc",28299.371,6.00,6,0.100,173461.000,0.200,18369.000,0.300,1497.000,0.500,461.000,1.000,79.000,5.000,0
"03/09/08","04:06:51",117967.000,"cc",28302.549,6.00,6,0.100,105533.000,0.200,10391.000,0.300,1421.000,0.500,545.000,1.000,77.000,5.000,0
"03/09/08","04:06:57",142855.000,"cc",28383.754,6.00,6,0.100,127659.000,0.200,12787.000,0.300,1633.000,0.500,675.000,1.000,101.000,5.000,0
"03/09/08","04:07:03",135818.000,"cc",28365.914,6.00,6,0.100,122929.000,0.200,11547.000,0.300,998.000,0.500,301.000,1.000,43.000,5.000,0
"03/09/08","04:07:09",137010.000,"cc",28277.311,6.00,6,0.100,123669.000,0.200,11750.000,0.300,1134.000,0.500,405.000,1.000,52.000,5.000,0
"03/09/08","04:07:15",281531.000,"cc",28306.918,6.00,6,0.100,248343.000,0.200,30719.000,0.300,1931.000,0.500,470.000,1.000,68.000,5.000,0
"03/09/08","04:07:21",278419.000,"cc",28305.201,6.00,6,0.100,247149.000,0.200,28985.000,0.300,1808.000,0.500,419.000,1.000,58.000,5.000,0
"03/09/08","04:07:27",256199.000,"cc",28324.867,6.00,6,0.100,227603.000,0.200,26015.000,0.300,1958.000,0.500,566.000,1.000,57.000,5.000,0
"03/09/08","04:07:33",224488.000,"cc",28302.533,6.00,6,0.100,199602.000,0.200,22286.000,0.300,1923.000,0.500,603.000,1.000,74.000,5.000,0
"03/09/08","04:07:39",277460.000,"cc",28312.311,6.00,6,0.100,245513.000,0.200,28923.000,0.300,2243.000,0.500,679.000,1.000,102.000,5.000,0
"03/09/08","04:07:45",321392.000,"cc",28373.631,6.00,6,0.100,282766.000,0.200,35532.000,0.300,2426.000,0.500,582.000,1.000,86.000,5.000,0
"03/09/08","04:07:51",177409.000,"cc",28287.154,6.00,6,0.100,158163.000,0.200,16645.000,0.300,1793.000,0.500,706.000,1.000,102.000,5.000,0
"03/09/08","04:07:57",169459.000,"cc",28284.516,6.00,6,0.100,151794.000,0.200,15297.000,0.300,1640.000,0.500,629.000,1.000,99.000,5.000,0
"03/09/08","04:08:03",277932.000,"cc",28362.000,6.00,6,0.100,248126.000,0.200,27489.000,0.300,1805.000,0.500,445.000,1.000,67.000,5.000,0
"03/09/08","04:08:09",142891.000,"cc",28260.590,6.00,6,0.100,128794.000,0.200,12393.000,0.300,1228.000,0.500,422.000,1.000,54.000,5.000,0
"03/09/08","04:08:15",161870.000,"cc",28246.658,6.00,6,0.100,143300.000,0.200,15949.000,0.300,1810.000,0.500,715.000,1.000,96.000,5.000,0
"03/09/08","04:08:21",300048.000,"cc",28316.910,6.00,6,0.100,264364.000,0.200,32583.000,0.300,2306.000,0.500,692.000,1.000,103.000,5.000,0
"03/09/08","04:08:27",229351.000,"cc",28357.930,6.00,6,0.100,195527.000,0.200,31378.000,0.300,1918.000,0.500,480.000,1.000,48.000,5.000,0
"03/09/08","04:08:33",209961.000,"cc",28307.221,6.00,6,0.100,188480.000,0.200,19617.000,0.300,1360.000,0.500,440.000,1.000,64.000,5.000,0
"03/09/08","04:08:39",153667.000,"cc",28356.705,6.00,6,0.100,138886.000,0.200,13174.000,0.300,1171.000,0.500,384.000,1.000,52.000,5.000,0
"03/09/08","04:08:45",177924.000,"cc",28284.430,6.00,6,0.100,160617.000,0.200,15463.000,0.300,1313.000,0.500,467.000,1.000,64.000,5.000,0
"03/09/08","04:08:51",164594.000,"cc",28368.588,6.00,6,0.100,147674.000,0.200,14620.000,0.300,1615.000,0.500,595.000,1.000,90.000,5.000,0
"03/09/08","04:08:57",191193.000,"cc",28358.061,6.00,6,0.100,171014.000,0.200,17677.000,0.300,1737.000,0.500,670.000,1.000,95.000,5.000,0
"03/09/08","04:09:03",162484.000,"cc",28342.625,6.00,6,0.100,145451.000,0.200,14690.000,0.300,1577.000,0.500,642.000,1.000,124.000,5.000,0
"03/09/08","04:09:09",116474.000,"cc",28292.387,6.00,6,0.100,103885.000,0.200,10291.000,0.300,1537.000,0.500,667.000,1.000,94.000,5.000,0
"03/09/08","04:09:15",135060.000,"cc",28286.289,6.00,6,0.100,120264.000,0.200,12506.000,0.300,1642.000,0.500,577.000,1.000,71.000,5.000,0
"03/09/08","04:09:21",211076.000,"cc",28286.690,6.00,6,0.100,188397.000,0.200,20534.000,0.300,1628.000,0.500,464.000,1.000,53.000,5.000,0
"03/09/08","04:09:27",231027.000,"cc",28351.287,6.00,6,0.100,206378.000,0.200,22155.000,0.300,1904.000,0.500,512.000,1.000,78.000,5.000,0
"03/09/08","04:09:33",205255.000,"cc",28273.270,6.00,6,0.100,182762.000,0.200,19692.000,0.300,1987.000,0.500,722.000,1.000,92.000,5.000,0
"03/09/08","04:09:39",139822.000,"cc",28346.688,6.00,6,0.100,125381.000,0.200,12543.000,0.300,1371.000,0.500,473.000,1.000,54.000,5.000,0
"03/09/08","04:09:45",248340.000,"cc",28308.822,6.00,6,0.100,219491.000,0.200,25859.000,0.300,2272.000,0.500,650.000,1.000,68.000,5.000,0
"03/09/08","04:09:51",222978.000,"cc",28309.893,6.00,6,0.100,198167.000,0.200,22150.000,0.300,1982.000,0.500,600.000,1.000,79.000,5.000,0
"03/09/08","04:09:57",150350.000,"cc",28286.969,6.00,6,0.100,135265.000,0.200,13331.000,0.300,1313.000,0.500,394.000,1.000,47.000,5.000,0
"03/09/08","04:10:03",162739.000,"cc",28351.313,6.00,6,0.100,146174.000,0.200,14605.000,0.300,1418.000,0.500,475.000,1.000,67.000,5.000,0
"03/09/08","04:10:09",153104.000,"cc",28335.596,6.00,6,0.100,137828.000,0.200,13644.000,0.300,1217.000,0.500,373.000,1.000,42.000,5.000,0
"03/09/08","04:10:15",277502.000,"cc",28301.590,6.00,6,0.100,245749.000,0.200,29388.000,0.300,1910.000,0.500,398.000,1.000,57.000,5.000,0
"03/09/08","04:10:21",231762.000,"cc",28317.047,6.00,6,0.100,208474.000,0.200,21528.000,0.300,1398.000,0.500,323.000,1.000,39.000,5.000,0
"03/09/08","04:10:27",269868.000,"cc",28276.053,6.00,6,0.100,240641.000,0.200,27068.000,0.300,1712.000,0.500,400.000,1.000,47.000,5.000,0
"03/09/08","04:10:33",291443.000,"cc",28220.047,6.00,6,0.100,259032.000,0.200,30233.000,0.300,1819.000,0.500,330.000,1.000,29.000,5.000,0
"03/09/08","04:10:39",314263.000,"cc",28329.059,6.00,6,0.100,279326.000,0.200,33037.000,0.300,1675.000,0.500,205.000,1.000,20.000,5.000,0
"03/09/08","04:10:45",261187.000,"cc",28338.641,6.00,6,0.100,233470.000,0.200,26250.000,0.300,1301.000,0.500,155.000,1.000,11.000,5.000,0
"03/09/08","04:10:51",239892.000,"cc",28365.055,6.00,6,0.100,215459.000,0.200,22826.000,0.300,1347.000,0.500,237.000,1.000,23.000,5.000,0
"03/09/08","04:10:57",232387.000,"cc",28285.557,6.00,6,0.100,208075.000,0.200,22819.000,0.300,1230.000,0.500,237.000,1.000,26.000,5.000,0
"03/09/08","04:11:03",146301.000,"cc",28327.635,6.00,6,0.100,132505.000,0.200,12804.000,0.300,816.000,0.500,157.000,1.000,19.000,5.000,0
"03/09/08","04:11:09",206323.000,"cc",28351.051,6.00,6,0.100,185023.000,0.200,19994.000,0.300,1140.000,0.500,154.000,1.000,12.000,5.000,0
"03/09/08","04:11:15",121541.000,"cc",28314.039,6.00,6,0.100,110405.000,0.200,10354.000,0.300,677.000,0.500,98.000,1.000,7.000,5.000,0
"03/09/08","04:11:21",164129.000,"cc",28349.033,6.00,6,0.100,147754.000,0.200,15389.000,0.300,851.000,0.500,123.000,1.000,12.000,5.000,0
"03/09/08","04:11:27",89711.000,"cc",28313.301,6.00,6,0.100,81585.000,0.200,7510.000,0.300,533.000,0.500,74.000,1.000,9.000,5.000,0
"03/09/08","04:11:33",64376.000,"cc",28363.109,6.00,6,0.100,58925.000,0.200,4981.000,0.300,389.000,0.500,76.000,1.000,5.000,5.000,0
"03/09/08","04:11:39",82303.000,"cc",28221.492,6.00,6,0.100,74896.000,0.200,6844.000,0.300,471.000,0.500,87.000,1.000,5.000,5.000,0
"03/09/08","04:11:45",30450.000,"cc",28336.543,6.00,6,0.100,28756.000,0.200,1534.000,0.300,142.000,0.500,17.000,1.000,1.000,5.000,0
"03/09/08","04:11:51",40925.000,"cc",28295.693,6.00,6,0.100,38072.000,0.200,2581.000,0.300,241.000,0.500,28.000,1.000,3.000,5.000,0
"03/09/08","04:11:57",29559.000,"cc",28335.229,6.00,6,0.100,27836.000,0.200,1553.000,0.300,150.000,0.500,18.000,1.000,2.000,5.000,0
"03/09/08","04:12:03",28704.000,"cc",28336.221,6.00,6,0.100,26985.000,0.200,1520.000,0.300,183.000,0.500,15.000,1.000,1.000,5.000,0
"03/09/08","04:12:09",28862.000,"cc",28285.797,6.00,6,0.100,27220.000,0.200,1455.000,0.300,166.000,0.500,20.000,1.000,1.000,5.000,0
"03/09/08","04:12:15",28208.000,"cc",28305.563,6.00,6,0.100,26613.000,0.200,1420.000,0.300,160.000,0.500,15.000,1.000,0,5.000,0
"03/09/08","04:12:21",27994.000,"cc",28389.613,6.00,6,0.100,26451.000,0.200,1389.000,0.300,145.000,0.500,8.000,1.000,1.000,5.000,0
"03/09/08","04:12:27",28196.000,"cc",28394.080,6.00,6,0.100,26628.000,0.200,1435.000,0.300,121.000,0.500,12.000,1.000,0,5.000,0
"03/09/08","04:12:33",27723.000,"cc",28324.596,6.00,6,0.100,26274.000,0.200,1344.000,0.300,100.000,0.500,5.000,1.000,0,5.000,0
"03/09/08","04:12:39",28154.000,"cc",28370.850,6.00,6,0.100,26645.000,0.200,1360.000,0.300,137.000,0.500,12.000,1.000,0,5.000,0
"03/09/08","04:12:45",27993.000,"cc",28386.309,6.00,6,0.100,26533.000,0.200,1360.000,0.300,88.000,0.500,12.000,1.000,0,5.000,0
"03/09/08","04:12:51",27218.000,"cc",28268.729,6.00,6,0.100,25895.000,0.200,1230.000,0.300,85.000,0.500,8.000,1.000,0,5.000,0
"03/09/08","04:12:57",27259.000,"cc",28319.752,6.00,6,0.100,25937.000,0.200,1227.000,0.300,88.000,0.500,7.000,1.000,0,5.000,0
"03/09/08","04:13:03",27072.000,"cc",28381.127,6.00,6,0.100,25766.000,0.200,1208.000,0.300,88.000,0.500,10.000,1.000,0,5.000,0
"03/09/08","04:13:09",27463.000,"cc",28327.207,6.00,6,0.100,26071.000,0.200,1301.000,0.300,83.000,0.500,8.000,1.000,0,5.000,0
"03/09/08","04:13:15",27898.000,"cc",28319.248,6.00,6,0.100,26351.000,0.200,1420.000,0.300,114.000,0.500,13.000,1.000,0,5.000,0
"03/09/08","04:13:21",27634.000,"cc",28254.565,6.00,6,0.100,26049.000,0.200,1412.000,0.300,160.000,0.500,13.000,1.000,0,5.000,0
"03/09/08","04:13:27",27525.000,"cc",28246.240,6.00,6,0.100,26049.000,0.200,1337.000,0.300,133.000,0.500,5.000,1.000,1.000,5.000,0
"03/09/08","04:13:33",27178.000,"cc",28275.426,6.00,6,0.100,25710.000,0.200,1311.000,0.300,143.000,0.500,13.000,1.000,1.000,5.000,0
"03/09/08","04:13:39",27385.000,"cc",28347.611,6.00,6,0.100,25807.000,0.200,1427.000,0.300,138.000,0.500,11.000,1.000,2.000,5.000,0
"03/09/08","04:13:45",27496.000,"cc",28304.842,6.00,6,0.100,25982.000,0.200,1341.000,0.300,161.000,0.500,12.000,1.000,0,5.000,0
"03/09/08","04:13:51",27672.000,"cc",28295.252,6.00,6,0.100,26165.000,0.200,1354.000,0.300,136.000,0.500,16.000,1.000,1.000,5.000,0
"03/09/08","04:13:57",26720.000,"cc",28347.545,6.00,6,0.100,25341.000,0.200,1277.000,0.300,96.000,0.500,6.000,1.000,0,5.000,0
"03/09/08","04:14:03",27378.000,"cc",28275.469,6.00,6,0.100,25859.000,0.200,1376.000,0.300,129.000,0.500,14.000,1.000,0,5.000,0
"03/09/08","04:14:09",27275.000,"cc",28265.531,6.00,6,0.100,25802.000,0.200,1333.000,0.300,128.000,0.500,12.000,1.000,0,5.000,0
"03/09/08","04:14:15",27373.000,"cc",28391.295,6.00,6,0.100,25923.000,0.200,1333.000,0.300,105.000,0.500,10.000,1.000,2.000,5.000,0
"03/09/08","04:14:21",26944.000,"cc",28431.424,6.00,6,0.100,25580.000,0.200,1262.000,0.300,98.000,0.500,4.000,1.000,0,5.000,0
"03/09/08","04:14:27",27584.000,"cc",28353.729,6.00,6,0.100,26007.000,0.200,1444.000,0.300,123.000,0.500,10.000,1.000,0,5.000,0
"03/09/08","04:14:33",27593.000,"cc",28359.229,6.00,6,0.100,26139.000,0.200,1331.000,0.300,111.000,0.500,12.000,1.000,0,5.000,0
"03/09/08","04:14:39",27462.000,"cc",28275.047,6.00,6,0.100,25960.000,0.200,1369.000,0.300,121.000,0.500,11.000,1.000,1.000,5.000,0
"03/09/08","04:14:45",27645.000,"cc",28361.068,6.00,6,0.100,26115.000,0.200,1380.000,0.300,138.000,0.500,11.000,1.000,1.000,5.000,0
"03/09/08","04:14:51",27237.000,"cc",28350.434,6.00,6,0.100,25794.000,0.200,1299.000,0.300,136.000,0.500,7.000,1.000,1.000,5.000,0
"03/09/08","04:14:57",27068.000,"cc",28367.309,6.00,6,0.100,25615.000,0.200,1301.000,0.300,144.000,0.500,8.000,1.000,0,5.000,0
"03/09/08","04:15:03",27279.000,"cc",28315.961,6.00,6,0.100,25861.000,0.200,1299.000,0.300,112.000,0.500,7.000,1.000,0,5.000,0
"03/09/08","04:15:09",27426.000,"cc",28283.994,6.00,6,0.100,25875.000,0.200,1421.000,0.300,123.000,0.500,7.000,1.000,0,5.000,0
"03/09/08","04:15:15",27091.000,"cc",28256.385,6.00,6,0.100,25670.000,0.200,1289.000,0.300,125.000,0.500,7.000,1.000,0,5.000,0
"03/09/08","04:15:21",27156.000,"cc",28295.994,6.00,6,0.100,25741.000,0.200,1286.000,0.300,121.000,0.500,8.000,1.000,0,5.000,0
"03/09/08","04:15:27",27099.000,"cc",28255.027,6.00,6,0.100,25632.000,0.200,1352.000,0.300,109.000,0.500,6.000,1.000,0,5.000,0
"03/09/08","04:15:33",26922.000,"cc",28311.441,6.00,6,0.100,25592.000,0.200,1225.000,0.300,96.000,0.500,9.000,1.000,0,5.000,0
"03/09/08","04:15:39",27018.000,"cc",28246.746,6.00,6,0.100,25533.000,0.200,1332.000,0.300,141.000,0.500,12.000,1.000,0,5.000,0
"03/09/08","04:15:45",27168.000,"cc",28403.910,6.00,6,0.100,25784.000,0.200,1258.000,0.300,119.000,0.500,7.000,1.000,0,5.000,0
"03/09/08","04:15:51",26863.000,"cc",28290.147,6.00,6,0.100,25537.000,0.200,1219.000,0.300,95.000,0.500,12.000,1.000,0,5.000,0
"03/09/08","04:15:57",27137.000,"cc",28270.807,6.00,6,0.100,25727.000,0.200,1254.000,0.300,150.000,0.500,6.000,1.000,0,5.000,0
"03/09/08","04:16:03",26927.000,"cc",28332.734,6.00,6,0.100,25514.000,0.200,1281.000,0.300,123.000,0.500,8.000,1.000,1.000,5.000,0
"03/09/08","04:16:09",26767.000,"cc",28252.871,6.00,6,0.100,25384.000,0.200,1231.000,0.300,142.000,0.500,10.000,1.000,0,5.000,0
"03/09/08","04:16:15",26770.000,"cc",28333.846,6.00,6,0.100,25453.000,0.200,1214.000,0.300,92.000,0.500,11.000,1.000,0,5.000,0
"03/09/08","04:16:21",26888.000,"cc",28346.979,6.00,6,0.100,25430.000,0.200,1308.000,0.300,138.000,0.500,11.000,1.000,1.000,5.000,0
"03/09/08","04:16:27",26884.000,"cc",28424.023,6.00,6,0.100,25575.000,0.200,1201.000,0.300,100.000,0.500,8.000,1.000,0,5.000,0
"03/09/08","04:16:33",27155.000,"cc",28245.672,6.00,6,0.100,25706.000,0.200,1329.000,0.300,112.000,0.500,8.000,1.000,0,5.000,0
"03/09/08","04:16:39",27162.000,"cc",28322.848,6.00,6,0.100,25769.000,0.200,1283.000,0.300,103.000,0.500,6.000,1.000,1.000,5.000,0